Location: Grasslands National Park East Block
(49.0708°N, 106.5295°W)
Time: 19:39:07
(UTC-06:00)

SR - Pass Details

Date: 26 October 2019
Orbit: 573 x 882 km, 66.7° (Epoch: 20 November)

Event Time Altitude Azimuth Distance (km) Brightness Sun altitude
Exits shadow 02:48:27 13° 28° (NNE) 2,342 ? -45.9°
Drops below altitude 10° 02:49:43 10° 40° (NE) 2,530 ? -45.8°
Sets 02:53:39 0° 65° (ENE) 3,485 ? -45.3°
